Location: Asheville, NC
(35.6000°N, 82.5500°W)
Time: 20:59:48
(UTC-05:00)

AAUSAT CUBESAT 2 - Pass Details

Date: 11 January 2018
Orbit: 575 x 594 km, 97.5° (Epoch: 21 January)

Event Time Altitude Azimuth Distance (km) Brightness Sun altitude
Rises 18:57:13 0° 143° (SE) 2,808 ? -16.1°
Enters shadow 18:58:07 - 140° (SE) 2,456 ? -16.3°
Exits shadow 19:07:58 - 5° (N) 2,359 ? -18.2°
Sets 19:09:07 0° 1° (N) 2,812 ? -18.4°
